Zurück zum Katalog

STARLINK-35082

AktivKommunikationSSO
NORAD 65392·PAYLOAD·🇺🇸 United States

Gestartet Aug 30, 2025 von Vandenberg Space Force Base

Loading…

Nächste Überflüge (nächste 24 Stunden)

TLE

AktuellSource: CelesTrak SupGP

Epoche: Sep 14, 2026, 20:50 UTC

1 65392C 25191P   26257.86854167 -.00009363  00000+0 -29079-3 0  2579
2 65392  97.2844 123.9270 0001757  90.2597 216.8398 15.33428063    10

Verfolge STARLINK-35082 in Echtzeit mit AllMySat

Download on the App Store